Anchialos, Greece

7:11 AM EEST on April 24, 2017 (GMT +0300)
Almiros Air Base

Weather History for LGBL - March, 2013

Change the Weather History Date:

Sunday, March 24, 2013

  Actual Average Record
Temperature  
Mean Temperature 48 °F -  
Max Temperature 60 °F - - ()
Min Temperature 35 °F - - ()
Degree Days  
Heating Degree Days 18    
Moisture  
Dew Point 42 °F    
Average Humidity 69    
Maximum Humidity 87    
Minimum Humidity 48    
Precipitation  
Precipitation 0.00 in - - ()
Sea Level Pressure  
Sea Level Pressure 29.94 in    
Wind  
Wind Speed 4 mph ()    
Max Wind Speed 12 mph    
Max Gust Speed -    
Visibility 6.2 miles    
Events      
T = Trace of Precipitation, MM = Missing Value Source: Averaged Metar Reports

Daily Weather History Graph

Daily Weather History Graph

Search for Another Location

Airport or City:

Trip Planner

Search our weather history database for the weather conditions in past years. The results will help you decide how hot, cold, wet, or windy it might be!

Date:

Astronomy

Mar. 24, 2013 Rise Set
Actual Time 6:25 AM EET 6:44 PM EET
Civil Twilight 5:59 AM EET 7:11 PM EET
Nautical Twilight 5:27 AM EET 7:42 PM EET
Astronomical Twilight 4:55 AM EET 8:15 PM EET
Moon 3:54 PM EET 4:24 AM EET
Length of Visible Light 13h 12m
Length of Day
12h 18m
Waxing Gibbous, 90% of the Moon is Illuminated
Mar 24
Waxing Gibbous
Mar 27
Full
Apr 3
Last Quarter
Apr 10
New
Apr 18
First Quarter

Hourly Weather History & Observations

Time (EET) Temp. Windchill Dew Point Humidity Pressure Visibility Wind Dir Wind Speed Gust Speed Precip Events Conditions
12:50 AM 37.4 °F 33.8 °F 33.8 °F 87% 29.95 in - WSW 4.6 mph - N/A   Clear
1:50 AM 37.4 °F 32.1 °F 33.8 °F 87% 29.95 in - WSW 6.9 mph - N/A   Clear
2:50 AM 37.4 °F - 32.0 °F 81% 29.95 in - Calm Calm - N/A   Clear
3:50 AM 37.4 °F 32.8 °F 33.8 °F 87% 29.95 in - West 5.8 mph - N/A   Clear
4:50 AM 37.4 °F - 32.0 °F 81% 29.95 in - Calm Calm - N/A   Clear
5:50 AM 35.6 °F - 32.0 °F 87% 29.95 in - Calm Calm - N/A   Clear
6:20 AM 37.4 °F - 32.0 °F 81% 29.95 in - Calm Calm - N/A   Clear
6:50 AM 37.4 °F 33.8 °F 32.0 °F 81% 29.98 in - WSW 4.6 mph - N/A   Clear
7:20 AM 41.0 °F 38.0 °F 35.6 °F 81% 29.98 in - WSW 4.6 mph - N/A   Clear
7:50 AM 42.8 °F 39.3 °F 35.6 °F 76% 29.98 in - SW 5.8 mph - N/A   Clear
8:20 AM 48.2 °F - 39.2 °F 71% 29.98 in - SW 4.6 mph - N/A   Clear
8:50 AM 50.0 °F - 41.0 °F 71% 29.98 in - Calm Calm - N/A   Clear
9:20 AM 55.4 °F - 41.0 °F 58% 29.98 in - Calm Calm - N/A   Clear
9:50 AM 59.0 °F - 39.2 °F 48% 29.98 in - Calm Calm - N/A   Clear
10:20 AM 55.4 °F - 41.0 °F 58% 30.01 in - East 5.8 mph - N/A   Clear
10:50 AM 57.2 °F - 42.8 °F 59% 29.98 in - ENE 4.6 mph - N/A   Clear
11:20 AM 57.2 °F - 41.0 °F 55% 29.98 in - ENE 4.6 mph - N/A   Clear
11:50 AM 57.2 °F - 42.8 °F 59% 29.98 in - ENE 5.8 mph - N/A   Clear
12:20 PM 59.0 °F - 44.6 °F 59% 29.95 in - ENE 5.8 mph - N/A   Clear
12:50 PM 60.8 °F - 42.8 °F 52% 29.95 in - ENE 6.9 mph - N/A   Clear
1:20 PM 60.8 °F - 44.6 °F 55% 29.95 in - East 8.1 mph - N/A   Clear
1:50 PM 59.0 °F - 42.8 °F 55% 29.92 in - East 9.2 mph - N/A   Clear
2:20 PM 60.8 °F - 46.4 °F 59% 29.92 in - East 6.9 mph - N/A   Clear
2:50 PM 60.8 °F - 44.6 °F 55% 29.92 in - East 9.2 mph - N/A   Clear
3:20 PM 60.8 °F - 46.4 °F 59% 29.89 in - East 9.2 mph - N/A   Clear
3:50 PM 60.8 °F - 48.2 °F 63% 29.89 in 6.2 mi East 11.5 mph - N/A   Mostly Cloudy
4:20 PM 60.8 °F - 48.2 °F 63% 29.89 in 6.2 mi East 10.4 mph - N/A   Mostly Cloudy
4:50 PM 60.8 °F - 48.2 °F 63% 29.89 in 6.2 mi East 11.5 mph - N/A   Mostly Cloudy
5:20 PM 60.8 °F - 48.2 °F 63% 29.89 in 6.2 mi ESE 10.4 mph - N/A   Mostly Cloudy
5:50 PM 60.8 °F - 48.2 °F 63% 29.89 in 6.2 mi ESE 10.4 mph - N/A   Scattered Clouds
6:20 PM 59.0 °F - 48.2 °F 67% 29.89 in 6.2 mi ESE 8.1 mph - N/A   Scattered Clouds
6:50 PM 57.2 °F - 46.4 °F 67% 29.89 in - ESE 6.9 mph - N/A   Clear
7:20 PM 55.4 °F - 46.4 °F 72% 29.89 in - ESE 5.8 mph - N/A   Clear
7:50 PM 53.6 °F - 46.4 °F 77% 29.89 in - SE 5.8 mph - N/A   Clear
8:50 PM 53.6 °F - 46.4 °F 77% 29.89 in - SE 4.6 mph - N/A   Clear
9:50 PM 50.0 °F - 44.6 °F 82% 29.92 in - Calm Calm - N/A   Clear
10:50 PM 50.0 °F - 44.6 °F 82% 29.92 in - Calm Calm - N/A   Clear
11:50 PM 50.0 °F - 46.4 °F 87% 29.89 in 6.2 mi Calm Calm - N/A   Mostly Cloudy